This is the latest recevied weather packets stored in our database for station/object AE5TC. If no packets are shown the sender has not sent any weather packets the latest 10 day(s).
| Time | Temp. | Humidity | Pressure | Rain* | Wind** | Luminosity | Snow |
|---|---|---|---|---|---|---|---|
| 1777647711 | 25° C | 83% | 1012.2 hPa | 0 mm | - | 216 W/m² | - |
| 1777647407 | 25° C | 84% | 1012.3 hPa | 0 mm | - | 273 W/m² | - |
| 1777646193 | 25° C | 87% | 1012.4 hPa | 0 mm | - | 344 W/m² | - |
| 1777645890 | 24.44° C | 87% | 1012.3 hPa | 0 mm | - | 302 W/m² | - |
| 1777645587 | 24.44° C | 86% | 1012.5 hPa | 0 mm | - | 229 W/m² | - |
| 1777645283 | 24.44° C | 87% | 1012.5 hPa | 0 mm | - | 211 W/m² | - |
| 1777644978 | 24.44° C | 86% | 1012.4 hPa | 0 mm | - | 199 W/m² | - |
| 1777644677 | 24.44° C | 85% | 1012.4 hPa | 0 mm | - | 191 W/m² | - |
| 1777644367 | 23.89° C | 87% | 1012 hPa | 0 mm | - | 237 W/m² | - |
| 1777644064 | 23.89° C | 87% | 1012.1 hPa | 0 mm | - | 242 W/m² | - |
| 1777643760 | 24.44° C | 86% | 1011.8 hPa | 0 mm | - | 225 W/m² | - |
| 1777643458 | 23.89° C | 87% | 1011.9 hPa | 0 mm | - | 246 W/m² | - |
| 1777642850 | 23.89° C | 87% | 1011.6 hPa | 0 mm | - | 244 W/m² | - |
| 1777642542 | 23.89° C | 87% | 1011.6 hPa | 0 mm | - | 241 W/m² | - |
| 1777642238 | 23.33° C | 88% | 1011.4 hPa | 0 mm | - | 266 W/m² | - |
| 1777641936 | 23.33° C | 90% | 1011.2 hPa | 0 mm | - | 236 W/m² | - |
| 1777641631 | 22.78° C | 91% | 1011.1 hPa | 0 mm | - | 238 W/m² | - |
| 1777641326 | 22.78° C | 91% | 1011.1 hPa | 0 mm | - | 225 W/m² | - |
| 1777641021 | 22.22° C | 92% | 1011 hPa | 0 mm | - | 188 W/m² | - |
| 1777639808 | 21.67° C | 93% | 1011.8 hPa | 0 mm | - | 87 W/m² | - |
| 1777638899 | 21.67° C | 94% | 1011.9 hPa | 0 mm | - | 218 W/m² | - |
| 1777638595 | 21.11° C | 96% | 1011.8 hPa | 0 mm | - | 143 W/m² | - |
| 1777638292 | 21.11° C | 97% | 1011.6 hPa | 0 mm | - | 87 W/m² | - |
| 1777637988 | 20.56° C | 99% | 1011.6 hPa | 0 mm | - | 82 W/m² | - |
| 1777637382 | 20° C | 99% | 1011.7 hPa | 0 mm | - | 65 W/m² | - |
* Rain latest hour (hover to see other rain measurements)
** Current wind speed in m/s (hover to see current wind gust speed)